| time (UTC) | temp C | wind direction | speed KPH | gust KPH | rain 1hr cm | rain 24hr cm | rain mn cm | humidity % | barometer mb |
| 20260508130302 | 8 | 201 | 0.0 | 0.0 | 0.00 | 0.00 | 0.00 | 93 | 1018.4 |
| 20260508123803 | 7 | 201 | 0.0 | 0.0 | 0.00 | 0.00 | 0.00 | 92 | 1018.3 |
| 20260508123302 | 7 | 201 | 0.0 | 0.0 | 0.00 | 0.00 | 0.00 | 92 | 1018.2 |
| 20260508122802 | 6 | 201 | 0.0 | 0.0 | 0.00 | 0.00 | 0.00 | 92 | 1018.2 |
| 20260508121803 | 6 | 201 | 0.0 | 0.0 | 0.00 | 0.00 | 0.00 | 91 | 1018.1 |
| 20260508121302 | 6 | 201 | 0.0 | 0.0 | 0.00 | 0.00 | 0.00 | 91 | 1018.0 |
| 20260508120803 | 6 | 201 | 0.0 | 0.0 | 0.00 | 0.00 | 0.00 | 90 | 1018.0 |
| 20260508120302 | 6 | 201 | 0.0 | 0.0 | 0.00 | 0.00 | 0.00 | 91 | 1018.0 |
| 20260508115802 | 6 | 201 | 0.0 | 0.0 | 0.00 | 0.00 | 0.00 | 91 | 1018.1 |
| 20260508114302 | 6 | 201 | 0.0 | 0.0 | 0.00 | 0.00 | 0.00 | 91 | 1017.7 |
| 20260508112803 | 6 | 201 | 0.0 | 0.0 | 0.00 | 0.00 | 0.00 | 90 | 1017.6 |
| 20260508112306 | 6 | 201 | 0.0 | 0.0 | 0.00 | 0.00 | 0.00 | 90 | 1017.6 |
| 20260508111802 | 6 | 201 | 0.0 | 0.0 | 0.00 | 0.00 | 0.00 | 90 | 1017.5 |
| 20260508111302 | 6 | 201 | 0.0 | 0.0 | 0.00 | 0.00 | 0.00 | 90 | 1017.4 |
| 20260508103802 | 6 | 201 | 0.0 | 0.0 | 0.00 | 0.00 | 0.00 | 90 | 1017.0 |
| 20260508103302 | 6 | 201 | 0.0 | 0.0 | 0.00 | 0.00 | 0.00 | 90 | 1017.0 |
| 20260508101302 | 6 | 201 | 0.0 | 0.0 | 0.00 | 0.00 | 0.00 | 89 | 1017.0 |
| 20260508093802 | 6 | 201 | 0.0 | 0.0 | 0.00 | 0.00 | 0.00 | 89 | 1016.8 |
| 20260508092312 | 7 | 201 | 0.0 | 0.0 | 0.00 | 0.00 | 0.00 | 88 | 1016.9 |
| 20260508091302 | 7 | 201 | 0.0 | 0.0 | 0.00 | 0.03 | 0.00 | 87 | 1016.8 |
| 20260508090303 | 7 | 201 | 0.0 | 0.0 | 0.00 | 0.03 | 0.00 | 86 | 1016.8 |
| 20260508085803 | 7 | 201 | 0.0 | 0.0 | 0.00 | 0.03 | 0.00 | 87 | 1016.7 |
| 20260508085306 | 7 | 201 | 0.0 | 0.0 | 0.00 | 0.03 | 0.00 | 87 | 1016.7 |
| 20260508084303 | 7 | 201 | 0.0 | 0.0 | 0.00 | 0.03 | 0.00 | 88 | 1016.6 |
| 20260508082306 | 7 | 201 | 0.0 | 0.0 | 0.00 | 0.03 | 0.00 | 88 | 1016.5 |
| 20260508081802 | 7 | 201 | 0.0 | 0.0 | 0.00 | 0.03 | 0.00 | 87 | 1016.6 |
| 20260508081303 | 7 | 201 | 0.0 | 0.0 | 0.00 | 0.03 | 0.00 | 86 | 1016.6 |
| 20260508075803 | 7 | 201 | 0.0 | 0.0 | 0.00 | 0.03 | 0.00 | 86 | 1016.8 |
| 20260508075308 | 8 | 201 | 0.0 | 0.0 | 0.00 | 0.03 | 0.00 | 87 | 1016.7 |
| 20260508073303 | 8 | 201 | 0.0 | 0.0 | 0.00 | 0.03 | 0.00 | 87 | 1016.6 |
| 20260508071303 | 8 | 201 | 0.0 | 0.0 | 0.00 | 0.03 | 0.00 | 86 | 1016.6 |
| 20260508064803 | 8 | 201 | 0.0 | 0.0 | 0.00 | 0.03 | 0.00 | 84 | 1016.9 |
| 20260508063803 | 8 | 201 | 0.0 | 0.0 | 0.00 | 0.03 | 0.00 | 85 | 1016.8 |
| 20260508063302 | 9 | 201 | 0.0 | 0.0 | 0.00 | 0.03 | 0.00 | 85 | 1016.8 |
| 20260508062306 | 9 | 201 | 0.0 | 0.0 | 0.00 | 0.03 | 0.00 | 86 | 1016.8 |
| 20260508055803 | 9 | 201 | 0.0 | 0.0 | 0.00 | 0.03 | 0.00 | 84 | 1017.0 |
| 20260508054803 | 9 | 201 | 0.0 | 0.0 | 0.00 | 0.03 | 0.00 | 84 | 1017.0 |
| 20260508054303 | 9 | 201 | 0.0 | 0.0 | 0.00 | 0.03 | 0.00 | 84 | 1016.9 |
| 20260508051303 | 10 | 201 | 0.0 | 0.0 | 0.00 | 0.03 | 0.00 | 80 | 1017.1 |
| 20260508050813 | 10 | 201 | 0.0 | 0.0 | 0.00 | 0.03 | 0.00 | 80 | 1017.0 |
| 20260508050303 | 10 | 201 | 0.0 | 0.0 | 0.00 | 0.03 | 0.00 | 79 | 1017.0 |
| 20260508044803 | 11 | 201 | 0.0 | 0.0 | 0.00 | 0.03 | 0.03 | 77 | 1016.9 |
| 20260508043803 | 11 | 201 | 0.0 | 0.0 | 0.00 | 0.03 | 0.03 | 76 | 1017.0 |
| 20260508041803 | 11 | 201 | 0.0 | 0.0 | 0.00 | 0.03 | 0.03 | 75 | 1017.0 |
| 20260508041303 | 11 | 201 | 0.0 | 0.0 | 0.00 | 0.03 | 0.03 | 73 | 1017.0 |
| 20260508040302 | 11 | 201 | 0.0 | 0.0 | 0.00 | 0.03 | 0.03 | 70 | 1017.1 |
| 20260508035306 | 12 | 201 | 0.0 | 0.0 | 0.00 | 0.03 | 0.03 | 69 | 1017.1 |
| 20260508034803 | 12 | 201 | 0.0 | 0.0 | 0.00 | 0.03 | 0.03 | 69 | 1017.0 |
| 20260508034304 | 12 | 201 | 0.0 | 0.0 | 0.00 | 0.03 | 0.03 | 70 | 1017.0 |
| 20260508032306 | 12 | 201 | 0.0 | 0.0 | 0.00 | 0.03 | 0.03 | 67 | 1017.0 |
| 20260508031302 | 12 | 201 | 0.0 | 0.0 | 0.00 | 0.03 | 0.03 | 67 | 1016.9 |
| 20260508030803 | 12 | 201 | 0.0 | 0.0 | 0.00 | 0.03 | 0.03 | 67 | 1016.9 |
| 20260508030302 | 13 | 201 | 0.0 | 0.0 | 0.00 | 0.03 | 0.03 | 66 | 1016.7 |
| 20260508025802 | 13 | 201 | 0.0 | 0.0 | 0.00 | 0.03 | 0.03 | 66 | 1016.7 |
| 20260508025305 | 13 | 201 | 0.0 | 0.0 | 0.00 | 0.03 | 0.03 | 67 | 1016.7 |
| 20260508023803 | 13 | 201 | 0.0 | 0.0 | 0.00 | 0.03 | 0.03 | 64 | 1016.8 |
| 20260508023303 | 13 | 201 | 0.0 | 0.0 | 0.00 | 0.03 | 0.03 | 62 | 1016.8 |
| 20260508022803 | 13 | 201 | 0.0 | 0.0 | 0.00 | 0.03 | 0.03 | 61 | 1016.7 |
| 20260508021802 | 14 | 201 | 0.0 | 0.0 | 0.00 | 0.03 | 0.03 | 61 | 1016.6 |
| 20260508015306 | 14 | 201 | 0.0 | 0.0 | 0.00 | 0.03 | 0.03 | 57 | 1016.6 |
| 20260508014303 | 15 | 201 | 0.0 | 0.0 | 0.00 | 0.03 | 0.03 | 57 | 1016.5 |
| 20260508011803 | 15 | 201 | 0.0 | 0.0 | 0.00 | 0.08 | 0.03 | 56 | 1015.9 |
| 20260508011302 | 15 | 201 | 0.0 | 0.0 | 0.00 | 0.08 | 0.03 | 57 | 1015.7 |
| 20260508010802 | 15 | 201 | 0.0 | 0.0 | 0.00 | 0.08 | 0.03 | 56 | 1015.7 |
| 20260508010302 | 16 | 201 | 0.0 | 0.0 | 0.00 | 0.08 | 0.03 | 54 | 1015.7 |
| 20260508005305 | 16 | 201 | 0.0 | 0.0 | 0.00 | 0.08 | 0.03 | 52 | 1015.6 |
| 20260508004803 | 16 | 201 | 0.0 | 0.0 | 0.00 | 0.08 | 0.03 | 54 | 1015.5 |
| 20260508003302 | 16 | 201 | 0.0 | 0.0 | 0.00 | 0.08 | 0.03 | 51 | 1015.5 |
| 20260508002803 | 16 | 201 | 0.0 | 0.0 | 0.00 | 0.08 | 0.03 | 51 | 1015.5 |
| 20260508001803 | 16 | 201 | 0.0 | 0.0 | 0.00 | 0.08 | 0.03 | 51 | 1015.4 |
| 20260508001303 | 17 | 201 | 0.0 | 0.0 | 0.00 | 0.08 | 0.03 | 52 | 1015.4 |
| 20260507235803 | 17 | 201 | 0.0 | 0.0 | 0.00 | 0.08 | 0.03 | 50 | 1015.1 |
| 20260507235306 | 17 | 201 | 0.0 | 0.0 | 0.00 | 0.08 | 0.03 | 49 | 1015.1 |
| 20260507234803 | 17 | 201 | 0.0 | 0.0 | 0.00 | 0.08 | 0.03 | 50 | 1015.0 |
| 20260507233303 | 17 | 201 | 0.0 | 0.0 | 0.00 | 0.08 | 0.03 | 48 | 1014.9 |
| 20260507232803 | 17 | 201 | 0.0 | 0.0 | 0.00 | 0.08 | 0.03 | 48 | 1014.9 |
| 20260507231803 | 18 | 201 | 0.0 | 0.0 | 0.00 | 0.08 | 0.03 | 46 | 1014.8 |
| 20260507231303 | 18 | 201 | 0.0 | 0.0 | 0.00 | 0.08 | 0.03 | 46 | 1014.8 |
| 20260507230802 | 18 | 201 | 0.0 | 0.0 | 0.00 | 0.08 | 0.03 | 47 | 1014.7 |
| 20260507225803 | 18 | 201 | 0.0 | 0.0 | 0.00 | 0.08 | 0.03 | 44 | 1014.9 |
| 20260507224803 | 18 | 201 | 0.0 | 0.0 | 0.00 | 0.08 | 0.03 | 49 | 1014.9 |
| 20260507223802 | 18 | 201 | 0.0 | 0.0 | 0.00 | 0.08 | 0.03 | 51 | 1015.1 |
| 20260507223303 | 18 | 201 | 0.0 | 0.0 | 0.00 | 0.08 | 0.03 | 51 | 1015.2 |
| 20260507222802 | 19 | 201 | 0.0 | 0.0 | 0.00 | 0.08 | 0.03 | 48 | 1015.2 |
| 20260507222306 | 19 | 201 | 0.0 | 0.0 | 0.00 | 0.08 | 0.03 | 42 | 1015.1 |
| 20260507220303 | 20 | 201 | 0.0 | 0.0 | 0.00 | 0.13 | 0.03 | 45 | 1015.1 |
| 20260507215803 | 20 | 201 | 0.0 | 0.0 | 0.00 | 0.13 | 0.03 | 43 | 1015.2 |
| 20260507215306 | 20 | 201 | 0.0 | 0.0 | 0.00 | 0.13 | 0.03 | 42 | 1015.2 |
| 20260507214303 | 20 | 201 | 0.0 | 0.0 | 0.00 | 0.13 | 0.03 | 46 | 1015.2 |
| 20260507213302 | 20 | 201 | 0.0 | 0.0 | 0.00 | 0.13 | 0.03 | 48 | 1015.1 |
| 20260507212803 | 20 | 201 | 0.0 | 0.0 | 0.00 | 0.13 | 0.03 | 46 | 1015.0 |
| 20260507211803 | 20 | 201 | 0.0 | 3.2 | 0.00 | 0.13 | 0.03 | 48 | 1015.1 |
| 20260507211302 | 20 | 201 | 0.0 | 3.2 | 0.00 | 0.13 | 0.03 | 49 | 1015.0 |
| 20260507210303 | 20 | 0 | 0.0 | 0.0 | 0.00 | 0.13 | 0.03 | 42 | 1014.9 |
| 20260507205306 | 20 | 0 | 0.0 | 0.0 | 0.00 | 0.13 | 0.03 | 48 | 1015.0 |
| 20260507204303 | 21 | 0 | 0.0 | 1.6 | 0.00 | 0.13 | 0.03 | 44 | 1014.9 |
| 20260507202802 | 21 | 241 | 0.0 | 0.0 | 0.00 | 0.13 | 0.03 | 43 | 1015.0 |
| 20260507201803 | 21 | 241 | 0.0 | 0.0 | 0.00 | 0.13 | 0.03 | 45 | 1015.0 |
| 20260507201303 | 21 | 241 | 0.0 | 0.0 | 0.00 | 0.13 | 0.03 | 43 | 1015.0 |
| 20260507200802 | 20 | 241 | 0.0 | 0.0 | 0.00 | 0.13 | 0.03 | 44 | 1015.1 |
| 20260507195802 | 21 | 241 | 0.0 | 0.0 | 0.00 | 0.13 | 0.03 | 43 | 1015.1 |
| 20260507195305 | 21 | 241 | 0.0 | 0.0 | 0.00 | 0.13 | 0.03 | 45 | 1015.1 |
| 20260507194303 | 21 | 241 | 0.0 | 0.0 | 0.00 | 0.13 | 0.03 | 44 | 1015.2 |
| 20260507192306 | 21 | 241 | 0.0 | 0.0 | 0.00 | 0.13 | 0.03 | 51 | 1015.1 |
| 20260507191803 | 21 | 241 | 0.0 | 0.0 | 0.00 | 0.13 | 0.03 | 44 | 1015.0 |
| 20260507191303 | 20 | 241 | 0.0 | 0.0 | 0.00 | 0.13 | 0.03 | 49 | 1015.3 |
| 20260507184802 | 20 | 265 | 0.0 | 0.0 | 0.00 | 0.15 | 0.03 | 51 | 1015.3 |
| 20260507182803 | 20 | 265 | 0.0 | 0.0 | 0.00 | 0.20 | 0.03 | 48 | 1015.3 |
| 20260507182306 | 20 | 265 | 0.0 | 1.6 | 0.00 | 0.20 | 0.03 | 52 | 1015.3 |
| 20260507181803 | 19 | 265 | 0.0 | 1.6 | 0.00 | 0.20 | 0.03 | 49 | 1015.2 |
| 20260507181303 | 19 | 309 | 0.0 | 0.0 | 0.00 | 0.20 | 0.03 | 56 | 1015.4 |
| 20260507180302 | 19 | 309 | 0.0 | 0.0 | 0.00 | 0.20 | 0.03 | 53 | 1015.4 |
| 20260507175802 | 18 | 309 | 0.0 | 0.0 | 0.00 | 0.20 | 0.03 | 51 | 1015.6 |
| 20260507174303 | 19 | 309 | 0.0 | 0.0 | 0.00 | 0.20 | 0.03 | 54 | 1015.9 |
| 20260507173803 | 18 | 309 | 0.0 | 0.0 | 0.00 | 0.20 | 0.03 | 50 | 1016.1 |
| 20260507173302 | 18 | 309 | 0.0 | 1.6 | 0.00 | 0.20 | 0.03 | 55 | 1016.0 |
| 20260507172803 | 18 | 309 | 0.0 | 1.6 | 0.00 | 0.20 | 0.03 | 53 | 1016.0 |
| 20260507172307 | 18 | 286 | 0.0 | 0.0 | 0.00 | 0.20 | 0.03 | 52 | 1015.9 |
| 20260507171803 | 18 | 286 | 0.0 | 0.0 | 0.00 | 0.20 | 0.03 | 61 | 1015.8 |
| 20260507171302 | 18 | 286 | 0.0 | 1.6 | 0.00 | 0.20 | 0.03 | 53 | 1015.7 |
| 20260507170303 | 18 | 289 | 0.0 | 1.6 | 0.00 | 0.20 | 0.03 | 53 | 1015.7 |
| 20260507165803 | 18 | 290 | 0.0 | 0.0 | 0.00 | 0.20 | 0.03 | 55 | 1016.1 |
| 20260507165306 | 18 | 290 | 0.0 | 0.0 | 0.00 | 0.20 | 0.03 | 56 | 1016.0 |
| 20260507164803 | 18 | 290 | 0.0 | 1.6 | 0.00 | 0.20 | 0.03 | 56 | 1016.0 |
| 20260507162802 | 18 | 234 | 0.0 | 0.0 | 0.00 | 0.20 | 0.03 | 54 | 1015.9 |
| 20260507155306 | 17 | 234 | 0.0 | 0.0 | 0.00 | 0.20 | 0.03 | 60 | 1016.4 |
| 20260507152306 | 16 | 234 | 0.0 | 3.2 | 0.00 | 0.20 | 0.03 | 64 | 1016.3 |
| 20260507150802 | 15 | 234 | 0.0 | 0.0 | 0.00 | 0.20 | 0.03 | 71 | 1016.2 |
| 20260507145803 | 15 | 234 | 0.0 | 3.2 | 0.00 | 0.20 | 0.03 | 71 | 1016.2 |
| 20260507145306 | 15 | 234 | 0.0 | 3.2 | 0.00 | 0.20 | 0.03 | 72 | 1016.1 |
| 20260507144802 | 14 | 286 | 0.0 | 1.6 | 0.00 | 0.20 | 0.03 | 73 | 1016.1 |
| 20260507144303 | 14 | 244 | 0.0 | 0.0 | 0.00 | 0.20 | 0.03 | 76 | 1016.2 |
| 20260507143803 | 14 | 244 | 0.0 | 1.6 | 0.00 | 0.20 | 0.03 | 75 | 1016.1 |
| 20260507143302 | 14 | 244 | 0.0 | 1.6 | 0.00 | 0.20 | 0.03 | 74 | 1016.2 |
| 20260507142803 | 13 | 203 | 0.0 | 1.6 | 0.00 | 0.20 | 0.03 | 77 | 1016.2 |
| 20260507141802 | 13 | 293 | 0.0 | 1.6 | 0.00 | 0.20 | 0.03 | 80 | 1016.0 |
| 20260507141302 | 13 | 314 | 0.0 | 1.6 | 0.00 | 0.20 | 0.03 | 78 | 1016.0 |
| 20260507140803 | 13 | 314 | 0.0 | 3.2 | 0.00 | 0.20 | 0.03 | 81 | 1016.0 |
| 20260507135803 | 13 | 348 | 0.0 | 3.2 | 0.00 | 0.20 | 0.03 | 83 | 1015.9 |
| 20260507135306 | 12 | 242 | 0.0 | 3.2 | 0.00 | 0.20 | 0.03 | 87 | 1015.9 |
| 20260507134303 | 12 | 256 | 0.0 | 1.6 | 0.00 | 0.20 | 0.03 | 87 | 1015.8 |
| 20260507132306 | 11 | 234 | 0.0 | 3.2 | 0.00 | 0.23 | 0.03 | 89 | 1015.6 |
| 20260507131803 | 11 | 271 | 0.0 | 3.2 | 0.00 | 0.25 | 0.03 | 90 | 1015.7 |